Anaktuvuk Pass, AK

12:53 PM AKST on January 17, 2017 (GMT -0900)
Anaktuvuk Pass

Weather History for PAKP - February, 2013

Change the Weather History Date:

Monday, February 4, 2013

  Actual Average Record
Temperature  
Mean Temperature -18 °F -  
Max Temperature -16 °F 0 °F 23 °F (2014)
Min Temperature -20 °F -12 °F -38 °F (2009)
Degree Days  
Heating Degree Days 83    
Moisture  
Dew Point -29 °F    
Average Humidity 58    
Maximum Humidity 63    
Minimum Humidity 53    
Precipitation  
Precipitation 0.00 in - - ()
Sea Level Pressure  
Sea Level Pressure 29.67 in    
Wind  
Wind Speed 16 mph (NE)    
Max Wind Speed 21 mph    
Max Gust Speed 23 mph    
Visibility 5 miles    
Events      
Averages and records for this station are not official NWS values.
T = Trace of Precipitation, MM = Missing Value Source: NWS Daily Summary

Daily Weather History Graph

Daily Weather History Graph

Search for Another Location

Airport or City:

Trip Planner

Search our weather history database for the weather conditions in past years. The results will help you decide how hot, cold, wet, or windy it might be!

Date:

Astronomy

Feb. 04, 2013 Rise Set
Actual Time 10:10 AM AKST 4:32 PM AKST
Civil Twilight 9:01 AM AKST 5:42 PM AKST
Nautical Twilight 7:51 AM AKST 6:51 PM AKST
Astronomical Twilight 6:47 AM AKST 7:56 PM AKST
Moon 6:06 AM AKST (2/4) 9:51 AM AKST (2/4)
Length of Visible Light 8h 41m
Length of Day
6h 22m
Waning Crescent, 35% of the Moon is Illuminated
Feb 4
Waning Crescent
Feb 9
New
Feb 17
First Quarter
Feb 25
Full
Mar 4
Last Quarter

Hourly Weather History & Observations

Time (AKST) Temp. Windchill Dew Point Humidity Pressure Visibility Wind Dir Wind Speed Gust Speed Precip Events Conditions
12:16 AM -20.2 °F -46.0 °F - N/A% 29.55 in 5.0 mi NE 16.1 mph 20.7 mph N/A   Overcast
1:56 AM -20.2 °F -48.2 °F - N/A% 29.57 in 8.0 mi NE 19.6 mph - N/A   Overcast
2:16 AM -20.2 °F -45.2 °F - N/A% 29.58 in 7.0 mi NE 15.0 mph 21.9 mph N/A   Overcast
2:36 AM -18.4 °F -44.5 °F - N/A% 29.57 in 9.0 mi NE 17.3 mph 23.0 mph N/A   Overcast
2:56 AM -18.4 °F -43.7 °F -29.2 °F 58% 29.58 in 3.0 mi NE 16.1 mph 23.0 mph N/A   Overcast
3:16 AM -18.4 °F -44.5 °F -29.2 °F 58% 29.58 in 3.0 mi NE 17.3 mph 23.0 mph N/A   Overcast
3:36 AM -18.4 °F -45.2 °F -29.2 °F 58% 29.59 in 3.0 mi NE 18.4 mph - N/A   Overcast
3:56 AM -18.4 °F -45.2 °F -29.2 °F 58% 29.59 in 3.0 mi NE 18.4 mph 23.0 mph N/A   Overcast
4:16 AM -18.4 °F -44.5 °F -29.2 °F 58% 29.60 in 2.0 mi NE 17.3 mph 21.9 mph N/A   Overcast
4:36 AM -18.4 °F -45.2 °F -29.2 °F 58% 29.60 in 2.0 mi NE 18.4 mph 23.0 mph N/A   Overcast
4:56 AM -18.4 °F -44.5 °F -29.2 °F 58% 29.60 in 2.0 mi NE 17.3 mph 21.9 mph N/A   Overcast
5:16 AM -18.4 °F -44.5 °F -29.2 °F 58% 29.61 in 3.0 mi NE 17.3 mph - N/A   Overcast
5:36 AM -18.4 °F -42.9 °F -29.2 °F 58% 29.61 in 5.0 mi NE 15.0 mph 19.6 mph N/A   Overcast
5:56 AM -18.4 °F -44.5 °F -29.2 °F 58% 29.61 in 6.0 mi NE 17.3 mph - N/A   Overcast
6:16 AM -18.4 °F -42.9 °F -29.2 °F 58% 29.61 in 10.0 mi NE 15.0 mph - N/A   Overcast
6:36 AM -18.4 °F -42.1 °F -29.2 °F 58% 29.61 in 10.0 mi NE 13.8 mph 18.4 mph N/A   Overcast
6:56 AM -18.4 °F -43.7 °F -29.2 °F 58% 29.61 in 9.0 mi NE 16.1 mph 20.7 mph N/A   Overcast
7:16 AM -16.6 °F -40.6 °F -29.2 °F 53% 29.61 in 9.0 mi NE 15.0 mph 20.7 mph N/A   Overcast
7:36 AM -16.6 °F -42.1 °F -29.2 °F 53% 29.62 in 10.0 mi NE 17.3 mph 21.9 mph N/A   Overcast
7:56 AM -16.6 °F -40.6 °F -29.2 °F 53% 29.63 in 8.0 mi NNE 15.0 mph 21.9 mph N/A   Overcast
8:16 AM -18.4 °F -44.5 °F -29.2 °F 58% 29.63 in 8.0 mi NNE 17.3 mph 21.9 mph N/A   Overcast
8:36 AM -16.6 °F -41.4 °F -29.2 °F 53% 29.64 in 7.0 mi NNE 16.1 mph - N/A   Overcast
8:56 AM -18.4 °F -43.7 °F -29.2 °F 58% 29.64 in 9.0 mi NNE 16.1 mph 20.7 mph N/A   Overcast
9:16 AM -18.4 °F -42.9 °F -29.2 °F 58% 29.65 in 10.0 mi NNE 15.0 mph 18.4 mph N/A   Overcast
9:36 AM -18.4 °F -43.7 °F -29.2 °F 58% 29.65 in 7.0 mi NNE 16.1 mph - N/A   Overcast
9:56 AM -18.4 °F -42.9 °F -29.2 °F 58% 29.66 in 1.2 mi NNE 15.0 mph - N/A   Overcast
10:16 AM -18.4 °F -42.9 °F -29.2 °F 58% 29.66 in 1.0 mi NNE 15.0 mph 20.7 mph N/A   Overcast
10:36 AM -18.4 °F -43.7 °F -27.4 °F 63% 29.67 in 2.5 mi NNE 16.1 mph - N/A   Overcast
10:56 AM -18.4 °F -42.9 °F -27.4 °F 63% 29.67 in 1.5 mi NNE 15.0 mph - N/A   Overcast
11:16 AM -18.4 °F -42.9 °F -29.2 °F 58% 29.67 in 2.5 mi NNE 15.0 mph - N/A   Overcast
11:36 AM -18.4 °F -42.9 °F -27.4 °F 63% 29.67 in 2.5 mi NNE 15.0 mph - N/A   Overcast
11:56 AM -18.4 °F -44.5 °F -27.4 °F 63% 29.68 in 2.5 mi NNE 17.3 mph - N/A   Overcast
12:16 PM -18.4 °F -42.9 °F -27.4 °F 63% 29.68 in 2.0 mi NNE 15.0 mph - N/A   Overcast
12:36 PM -18.4 °F -42.9 °F -29.2 °F 58% 29.69 in 1.8 mi NNE 15.0 mph - N/A   Overcast
12:56 PM -18.4 °F -42.1 °F -27.4 °F 63% 29.69 in 2.0 mi NE 13.8 mph 18.4 mph N/A   Overcast
1:16 PM -18.4 °F -42.1 °F -27.4 °F 63% 29.70 in 3.0 mi NE 13.8 mph 20.7 mph N/A   Overcast
1:36 PM -18.4 °F -42.9 °F -29.2 °F 58% 29.70 in 5.0 mi NNE 15.0 mph 18.4 mph N/A   Overcast
1:56 PM -18.4 °F -42.1 °F -29.2 °F 58% 29.70 in 4.0 mi NE 13.8 mph - N/A   Overcast
2:16 PM -18.4 °F -42.9 °F -29.2 °F 58% 29.71 in 3.0 mi NNE 15.0 mph - N/A   Overcast
2:36 PM -18.4 °F -42.9 °F -29.2 °F 58% 29.71 in 2.5 mi NNE 15.0 mph 20.7 mph N/A   Overcast
2:56 PM -18.4 °F -42.9 °F -29.2 °F 58% 29.71 in 2.5 mi NE 15.0 mph 18.4 mph N/A   Overcast
3:16 PM -18.4 °F -42.9 °F -27.4 °F 63% 29.72 in 4.0 mi NE 15.0 mph - N/A   Overcast
3:36 PM -18.4 °F -41.2 °F -29.2 °F 58% 29.72 in 7.0 mi NNE 12.7 mph - N/A   Overcast
3:56 PM -18.4 °F -41.2 °F -29.2 °F 58% 29.72 in 6.0 mi NNE 12.7 mph - N/A   Overcast
4:16 PM -18.4 °F -42.9 °F -29.2 °F 58% 29.71 in 10.0 mi NNE 15.0 mph - N/A   Overcast
4:36 PM -18.4 °F -41.2 °F -29.2 °F 58% 29.71 in 9.0 mi NNE 12.7 mph - N/A   Overcast
4:56 PM -18.4 °F -42.1 °F -29.2 °F 58% 29.71 in 9.0 mi NNE 13.8 mph - N/A   Overcast
5:16 PM -18.4 °F -42.9 °F -29.2 °F 58% 29.72 in 3.0 mi NE 15.0 mph 19.6 mph N/A   Overcast
5:36 PM -18.4 °F -43.7 °F -27.4 °F 63% 29.71 in 5.0 mi NE 16.1 mph 19.6 mph N/A   Overcast
5:56 PM -18.4 °F -43.7 °F -29.2 °F 58% 29.71 in 9.0 mi NNE 16.1 mph - N/A   Overcast
6:16 PM -18.4 °F -42.1 °F -29.2 °F 58% 29.71 in 7.0 mi NNE 13.8 mph 19.6 mph N/A   Overcast
6:36 PM -18.4 °F -43.7 °F -29.2 °F 58% 29.71 in 5.0 mi NNE 16.1 mph - N/A   Overcast
6:56 PM -18.4 °F -43.7 °F -29.2 °F 58% 29.72 in 5.0 mi NE 16.1 mph - N/A   Overcast
7:16 PM -18.4 °F -43.7 °F -29.2 °F 58% 29.72 in 4.0 mi NNE 16.1 mph 21.9 mph N/A   Overcast
7:36 PM -18.4 °F -42.9 °F -29.2 °F 58% 29.73 in 10.0 mi NNE 15.0 mph - N/A   Overcast
7:56 PM -18.4 °F -43.7 °F -29.2 °F 58% 29.73 in 10.0 mi NE 16.1 mph - N/A   Overcast
8:16 PM -18.4 °F -42.9 °F -29.2 °F 58% 29.73 in 3.0 mi NE 15.0 mph - N/A   Overcast
8:36 PM -18.4 °F -42.9 °F -29.2 °F 58% 29.73 in 1.2 mi NNE 15.0 mph 19.6 mph N/A   Overcast
8:56 PM -18.4 °F -44.5 °F -29.2 °F 58% 29.72 in 1.2 mi NNE 17.3 mph - N/A   Overcast
9:16 PM -18.4 °F -43.7 °F -29.2 °F 58% 29.73 in 1.2 mi NNE 16.1 mph - N/A   Overcast
9:36 PM -18.4 °F -43.7 °F -29.2 °F 58% 29.73 in 1.5 mi NE 16.1 mph - N/A   Overcast
9:56 PM -18.4 °F -44.5 °F -29.2 °F 58% 29.74 in 1.2 mi NE 17.3 mph - N/A   Overcast
10:16 PM -18.4 °F -41.2 °F -29.2 °F 58% 29.74 in 2.5 mi NE 12.7 mph - N/A   Overcast
10:36 PM -18.4 °F -42.1 °F -29.2 °F 58% 29.74 in 1.8 mi NNE 13.8 mph 19.6 mph N/A   Overcast
10:56 PM -18.4 °F -42.9 °F -29.2 °F 58% 29.74 in 2.5 mi NE 15.0 mph 19.6 mph N/A   Overcast
11:16 PM -18.4 °F -42.9 °F -29.2 °F 58% 29.74 in 2.0 mi NE 15.0 mph - N/A   Overcast
11:36 PM -18.4 °F -43.7 °F -29.2 °F 58% 29.74 in 1.8 mi NE 16.1 mph 21.9 mph N/A   Overcast
11:56 PM -18.4 °F -46.5 °F -29.2 °F 58% 29.74 in 1.2 mi NE 20.7 mph - N/A   Overcast